QPF
0.03 0.04 0.05 0.05 0.05 0.03 0.02 0.03 0.02 0.01 0.01 0.01 0.01 0.00 0.01 0.02 0.02 0.03 0.04 0.03 0.03 0.03 0.06 0.09 0.11 0.11 0.10 0.08 0.06 0.06 0.08 0.08 0.10 0.13 0.16 0.14 0.10 0.14 0.17 0.18 0.21 0.17 0.14 0.11 0.08 0.09 0.12 0.17 0.19
0.02 0.03 0.04 0.05 0.04 0.02 0.02 0.03 0.02 0.01 0.00 0.00 0.00 0.00 0.00 0.01 0.02 0.02 0.02 0.02 0.01 0.03 0.07 0.09 0.12 0.12 0.09 0.07 0.06 0.06 0.07 0.08 0.10 0.13 0.14 0.12 0.11 0.13 0.15 0.15 0.15 0.15 0.15 0.12 0.11 0.12 0.17 0.23 0.21
0.03 0.05 0.04 0.04 0.03 0.02 0.03 0.03 0.02 0.01 0.01 0.01 0.00 0.00 0.01 0.01 0.01 0.01 0.02 0.02 0.02 0.02 0.05 0.09 0.12 0.12 0.10 0.07 0.07 0.08 0.09 0.10 0.11 0.12 0.12 0.11 0.12 0.11 0.14 0.14 0.15 0.17 0.15 0.14 0.11 0.10 0.13 0.14 0.13
0.03 0.03 0.05 0.05 0.03 0.03 0.02 0.03 0.03 0.02 0.01 0.00 0.00 0.01 0.01 0.01 0.02 0.02 0.02 0.02 0.01 0.02 0.04 0.06 0.10 0.13 0.15 0.12 0.11 0.13 0.13 0.13 0.14 0.15 0.15 0.11 0.12 0.13 0.16 0.15 0.15 0.15 0.14 0.11 0.09 0.07 0.07 0.07 0.07
0.03 0.04 0.05 0.04 0.03 0.03 0.01 0.02 0.02 0.03 0.01 0.00 0.00 0.00 0.01 0.02 0.03 0.03 0.02 0.02 0.02 0.02 0.04 0.06 0.08 0.09 0.16 0.18 0.14 0.17 0.19 0.20 0.19 0.19 0.17 0.14 0.14 0.15 0.17 0.16 0.15 0.12 0.11 0.09 0.08 0.07 0.07 0.04 0.04
0.03 0.05 0.05 0.03 0.02 0.02 0.02 0.01 0.02 0.02 0.01 0.00 0.00 0.00 0.01 0.02 0.01 0.01 0.01 0.02 0.01 0.02 0.03 0.04 0.10 0.09 0.15 0.23 0.18 0.15 0.17 0.16 0.12 0.11 0.12 0.11 0.12 0.14 0.16 0.16 0.14 0.09 0.08 0.07 0.07 0.05 0.05 0.04 0.03
0.03 0.04 0.03 0.02 0.01 0.01 0.01 0.01 0.02 0.01 0.01 0.00 0.00 0.01 0.01 0.01 0.01 0.01 0.01 0.01 0.01 0.01 0.01 0.02 0.07 0.09 0.13 0.23 0.29 0.23 0.15 0.11 0.08 0.08 0.08 0.08 0.11 0.12 0.11 0.11 0.11 0.08 0.07 0.07 0.06 0.04 0.04 0.04 0.03
0.03 0.03 0.02 0.02 0.02 0.02 0.01 0.01 0.01 0.01 0.01 0.00 0.00 0.01 0.01 0.01 0.01 0.02 0.01 0.01 0.01 0.00 0.00 0.01 0.03 0.05 0.07 0.13 0.21 0.20 0.13 0.11 0.10 0.09 0.10 0.11 0.10 0.09 0.09 0.08 0.10 0.08 0.07 0.07 0.07 0.05 0.04 0.04 0.04
0.02 0.03 0.02 0.02 0.02 0.02 0.01 0.01 0.02 0.02 0.01 0.00 0.00 0.01 0.01 0.01 0.01 0.01 0.01 0.01 0.01 0.01 0.01 0.01 0.01 0.01 0.02 0.06 0.14 0.15 0.13 0.13 0.13 0.11 0.11 0.12 0.10 0.08 0.10 0.08 0.08 0.07 0.07 0.08 0.08 0.08 0.06 0.05 0.05
0.01 0.01 0.01 0.01 0.00 0.01 0.01 0.01 0.01 0.01 0.01 0.01 0.01 0.01 0.01 0.02 0.01 0.01 0.01 0.02 0.01 0.01 0.01 0.01 0.01 0.01 0.01 0.04 0.09 0.12 0.13 0.11 0.08 0.06 0.05 0.05 0.06 0.06 0.08 0.10 0.10 0.08 0.08 0.09 0.09 0.09 0.08 0.05 0.04
0.01 0.01 0.01 0.01 0.00 0.00 0.01 0.01 0.01 0.01 0.01 0.01 0.01 0.01 0.01 0.01 0.01 0.01 0.01 0.01 0.01 0.01 0.01 0.01 0.01 0.02 0.03 0.04 0.05 0.09 0.09 0.08 0.07 0.05 0.04 0.03 0.05 0.06 0.07 0.07 0.10 0.10 0.11 0.08 0.07 0.08 0.06 0.05 0.04
0.01 0.01 0.01 0.01 0.00 0.00 0.00 0.00 0.01 0.01 0.01 0.01 0.02 0.02 0.01 0.01 0.01 0.01 0.00 0.00 0.01 0.01 0.01 0.01 0.01 0.03 0.03 0.04 0.04 0.05 0.05 0.06 0.07 0.05 0.04 0.03 0.04 0.06 0.07 0.06 0.09 0.11 0.09 0.09 0.09 0.09 0.09 0.06 0.04
0.01 0.02 0.01 0.01 0.00 0.01 0.01 0.01 0.01 0.01 0.01 0.01 0.02 0.03 0.03 0.01 0.01 0.01 0.00 0.00 0.01 0.01 0.01 0.00 0.00 0.01 0.02 0.02 0.03 0.03 0.05 0.07 0.06 0.05 0.04 0.05 0.05 0.07 0.08 0.11 0.14 0.11 0.09 0.11 0.11 0.08 0.08 0.06 0.05
0.01 0.01 0.00 0.00 0.01 0.01 0.01 0.01 0.01 0.01 0.01 0.01 0.01 0.01 0.01 0.01 0.01 0.01 0.00 0.00 0.01 0.01 0.00 0.00 0.00 0.00 0.01 0.01 0.02 0.03 0.04 0.06 0.07 0.05 0.04 0.05 0.05 0.07 0.08 0.10 0.14 0.12 0.12 0.11 0.07 0.06 0.07 0.07 0.06
0.01 0.01 0.01 0.01 0.01 0.01 0.01 0.01 0.02 0.03 0.02 0.02 0.01 0.01 0.01 0.02 0.01 0.01 0.00 0.00 0.00 0.01 0.00 0.00 0.00 0.01 0.01 0.01 0.02 0.02 0.02 0.05 0.07 0.06 0.04 0.03 0.04 0.06 0.07 0.09 0.10 0.10 0.10 0.10 0.09 0.08 0.08 0.08 0.07
0.01 0.01 0.01 0.02 0.01 0.01 0.01 0.01 0.01 0.03 0.02 0.02 0.01 0.01 0.01 0.01 0.01 0.01 0.00 0.00 0.01 0.01 0.01 0.01 0.01 0.00 0.01 0.01 0.01 0.01 0.02 0.04 0.08 0.06 0.05 0.05 0.04 0.05 0.06 0.07 0.09 0.11 0.11 0.10 0.12 0.11 0.09 0.08 0.07
0.01 0.01 0.01 0.01 0.01 0.00 0.01 0.00 0.00 0.01 0.02 0.02 0.01 0.01 0.01 0.01 0.01 0.01 0.01 0.00 0.01 0.00 0.00 0.00 0.00 0.00 0.01 0.01 0.01 0.01 0.02 0.04 0.06 0.06 0.06 0.06 0.05 0.04 0.06 0.07 0.09 0.10 0.11 0.11 0.10 0.08 0.08 0.07 0.07
0.00 0.00 0.01 0.01 0.01 0.00 0.01 0.01 0.00 0.00 0.00 0.01 0.01 0.01 0.01 0.01 0.00 0.00 0.00 0.00 0.00 0.00 0.00 0.00 0.00 0.00 0.01 0.00 0.01 0.01 0.02 0.03 0.05 0.07 0.07 0.07 0.07 0.07 0.07 0.08 0.08 0.09 0.09 0.08 0.07 0.07 0.07 0.05 0.06
0.00 0.00 0.00 0.01 0.01 0.00 0.00 0.01 0.01 0.00 0.00 0.00 0.00 0.00 0.00 0.00 0.00 0.00 0.01 0.01 0.00 0.00 0.00 0.00 0.00 0.00 0.00 0.00 0.01 0.01 0.01 0.01 0.03 0.07 0.11 0.11 0.09 0.07 0.07 0.08 0.07 0.06 0.06 0.06 0.05 0.05 0.03 0.05 0.05
0.00 0.00 0.00 0.00 0.00 0.00 0.00 0.00 0.01 0.00 0.00 0.00 0.00 0.00 0.00 0.00 0.00 0.00 0.01 0.01 0.00 0.00 0.00 0.00 0.00 0.00 0.00 0.00 0.01 0.01 0.02 0.02 0.02 0.04 0.08 0.10 0.06 0.05 0.04 0.05 0.04 0.03 0.02 0.04 0.04 0.04 0.03 0.04 0.05
0.00 0.00 0.00 0.01 0.02 0.01 0.01 0.00 0.01 0.01 0.01 0.00 0.00 0.00 0.00 0.00 0.00 0.00 0.00 0.00 0.00 0.00 0.00 0.00 0.00 0.00 0.00 0.00 0.01 0.01 0.01 0.01 0.02 0.03 0.05 0.05 0.04 0.04 0.04 0.05 0.04 0.03 0.02 0.02 0.04 0.06 0.05 0.05 0.05
0.00 0.00 0.00 0.00 0.02 0.01 0.01 0.01 0.00 0.00 0.01 0.00 0.00 0.00 0.00 0.01 0.01 0.01 0.00 0.00 0.00 0.00 0.00 0.00 0.00 0.00 0.00 0.01 0.01 0.01 0.02 0.03 0.03 0.04 0.04 0.04 0.03 0.03 0.04 0.06 0.06 0.05 0.05 0.04 0.04 0.06 0.07 0.05 0.06
0.00 0.00 0.00 0.00 0.01 0.00 0.01 0.00 0.00 0.01 0.01 0.01 0.00 0.00 0.01 0.01 0.01 0.00 0.00 0.00 0.00 0.01 0.00 0.00 0.00 0.00 0.00 0.01 0.02 0.03 0.04 0.05 0.06 0.06 0.05 0.05 0.04 0.04 0.05 0.05 0.06 0.04 0.04 0.05 0.04 0.05 0.06 0.08 0.10
0.00 0.00 0.00 0.00 0.00 0.00 0.00 0.00 0.00 0.00 0.00 0.01 0.01 0.01 0.01 0.01 0.01 0.00 0.00 0.01 0.01 0.01 0.01 0.00 0.00 0.00 0.01 0.02 0.04 0.06 0.06 0.07 0.07 0.05 0.04 0.03 0.02 0.03 0.03 0.04 0.06 0.06 0.06 0.07 0.08 0.07 0.06 0.07 0.07
0.01 0.01 0.01 0.01 0.01 0.00 0.00 0.00 0.00 0.00 0.00 0.00 0.00 0.01 0.01 0.01 0.01 0.00 0.00 0.00 0.01 0.02 0.01 0.01 0.02 0.02 0.02 0.02 0.02 0.04 0.05 0.05 0.04 0.03 0.03 0.02 0.02 0.02 0.02 0.02 0.04 0.06 0.06 0.06 0.09 0.11 0.09 0.07 0.06
0.01 0.01 0.01 0.01 0.01 0.01 0.00 0.00 0.00 0.00 0.00 0.00 0.01 0.01 0.01 0.01 0.01 0.01 0.01 0.01 0.02 0.02 0.01 0.01 0.01 0.02 0.01 0.01 0.01 0.01 0.03 0.04 0.03 0.01 0.01 0.02 0.02 0.01 0.01 0.01 0.02 0.05 0.08 0.10 0.10 0.11 0.12 0.13 0.12
0.01 0.01 0.01 0.00 0.00 0.01 0.00 0.00 0.00 0.00 0.00 0.01 0.01 0.01 0.01 0.01 0.00 0.01 0.01 0.01 0.01 0.01 0.01 0.01 0.00 0.01 0.01 0.01 0.02 0.02 0.02 0.02 0.02 0.02 0.02 0.01 0.02 0.01 0.01 0.02 0.02 0.03 0.06 0.10 0.13 0.12 0.13 0.15 0.16
0.01 0.01 0.00 0.00 0.00 0.00 0.00 0.00 0.00 0.00 0.00 0.01 0.02 0.02 0.01 0.01 0.00 0.00 0.01 0.01 0.01 0.01 0.01 0.01 0.01 0.01 0.02 0.03 0.10 0.07 0.05 0.04 0.03 0.03 0.03 0.02 0.02 0.02 0.02 0.03 0.03 0.03 0.04 0.06 0.10 0.11 0.11 0.12 0.15
0.00 0.00 0.00 0.00 0.00 0.00 0.00 0.00 0.00 0.00 0.00 0.01 0.01 0.01 0.01 0.01 0.00 0.00 0.01 0.01 0.01 0.02 0.02 0.02 0.01 0.02 0.02 0.03 0.09 0.07 0.06 0.04 0.04 0.03 0.03 0.03 0.03 0.04 0.02 0.02 0.03 0.03 0.05 0.05 0.06 0.06 0.10 0.09 0.08
0.00 0.01 0.00 0.00 0.00 0.00 0.00 0.00 0.00 0.00 0.00 0.00 0.01 0.01 0.01 0.01 0.01 0.01 0.01 0.01 0.01 0.01 0.01 0.01 0.02 0.01 0.02 0.02 0.02 0.02 0.04 0.04 0.03 0.03 0.04 0.03 0.03 0.03 0.02 0.02 0.02 0.02 0.04 0.07 0.07 0.08 0.09 0.08 0.05
MSLP
1008.77 1009.47 1010.20 1010.87 1011.39 1011.70 1011.80 1011.72 1011.54 1011.33 1011.22 1011.25 1011.45 1011.80 1012.23 1012.66 1012.99 1013.15 1013.11 1012.88 1012.52 1012.11 1011.75 1011.50 1011.42 1011.50 1011.71 1012.00 1012.30 1012.56 1012.77 1012.91 1013.01 1013.12 1013.25 1013.44 1013.68 1013.95 1014.23 1014.49 1014.69 1014.84 1014.93 1015.00 1015.06 1015.14 1015.26 1015.42 1015.61
1009.04 1009.83 1010.58 1011.19 1011.59 1011.75 1011.67 1011.43 1011.10 1010.80 1010.62 1010.63 1010.85 1011.22 1011.70 1012.16 1012.53 1012.73 1012.73 1012.56 1012.28 1011.96 1011.69 1011.55 1011.56 1011.73 1012.00 1012.34 1012.68 1012.97 1013.19 1013.34 1013.45 1013.56 1013.68 1013.85 1014.07 1014.31 1014.55 1014.76 1014.94 1015.06 1015.15 1015.22 1015.29 1015.38 1015.51 1015.67 1015.84
1009.47 1010.29 1011.00 1011.52 1011.78 1011.76 1011.52 1011.12 1010.69 1010.32 1010.12 1010.14 1010.37 1010.77 1011.27 1011.75 1012.13 1012.35 1012.39 1012.27 1012.06 1011.83 1011.67 1011.63 1011.73 1011.98 1012.31 1012.69 1013.05 1013.35 1013.58 1013.74 1013.86 1013.96 1014.07 1014.22 1014.39 1014.59 1014.79 1014.96 1015.10 1015.21 1015.30 1015.38 1015.48 1015.59 1015.74 1015.91 1016.08
1010.02 1010.82 1011.45 1011.83 1011.92 1011.74 1011.35 1010.84 1010.34 1009.96 1009.77 1009.82 1010.08 1010.51 1011.01 1011.49 1011.87 1012.09 1012.15 1012.08 1011.94 1011.80 1011.73 1011.78 1011.96 1012.26 1012.63 1013.02 1013.38 1013.68 1013.91 1014.06 1014.18 1014.27 1014.38 1014.50 1014.65 1014.81 1014.97 1015.11 1015.23 1015.34 1015.43 1015.54 1015.66 1015.81 1015.98 1016.16 1016.33
1010.63 1011.36 1011.85 1012.06 1011.98 1011.65 1011.15 1010.58 1010.07 1009.71 1009.58 1009.68 1009.98 1010.43 1010.93 1011.40 1011.77 1011.98 1012.06 1012.03 1011.95 1011.90 1011.91 1012.03 1012.26 1012.58 1012.94 1013.31 1013.65 1013.92 1014.13 1014.27 1014.38 1014.48 1014.59 1014.71 1014.85 1014.99 1015.13 1015.25 1015.37 1015.47 1015.59 1015.72 1015.88 1016.06 1016.25 1016.43 1016.60
1011.20 1011.79 1012.12 1012.15 1011.90 1011.43 1010.86 1010.28 1009.81 1009.53 1009.48 1009.66 1010.02 1010.49 1010.99 1011.44 1011.79 1012.00 1012.09 1012.10 1012.09 1012.10 1012.18 1012.34 1012.59 1012.90 1013.24 1013.56 1013.83 1014.06 1014.23 1014.37 1014.48 1014.60 1014.73 1014.87 1015.02 1015.16 1015.29 1015.41 1015.53 1015.64 1015.78 1015.93 1016.12 1016.32 1016.52 1016.71 1016.86
1011.60 1012.03 1012.16 1012.00 1011.60 1011.04 1010.44 1009.90 1009.51 1009.34 1009.40 1009.67 1010.09 1010.59 1011.09 1011.52 1011.85 1012.06 1012.17 1012.23 1012.27 1012.35 1012.48 1012.68 1012.93 1013.21 1013.49 1013.74 1013.95 1014.12 1014.26 1014.39 1014.52 1014.66 1014.83 1015.00 1015.18 1015.34 1015.48 1015.60 1015.72 1015.84 1015.99 1016.16 1016.35 1016.56 1016.77 1016.95 1017.08
1011.77 1012.01 1011.94 1011.61 1011.08 1010.46 1009.87 1009.40 1009.12 1009.08 1009.26 1009.62 1010.10 1010.62 1011.12 1011.53 1011.85 1012.06 1012.21 1012.32 1012.43 1012.57 1012.76 1012.98 1013.23 1013.47 1013.69 1013.87 1014.02 1014.14 1014.25 1014.38 1014.53 1014.72 1014.93 1015.15 1015.35 1015.53 1015.69 1015.81 1015.92 1016.04 1016.18 1016.35 1016.55 1016.75 1016.95 1017.11 1017.22
1011.67 1011.73 1011.48 1010.99 1010.37 1009.74 1009.18 1008.81 1008.65 1008.74 1009.04 1009.48 1010.01 1010.54 1011.02 1011.42 1011.73 1011.96 1012.14 1012.30 1012.48 1012.69 1012.93 1013.18 1013.43 1013.65 1013.82 1013.96 1014.06 1014.15 1014.25 1014.39 1014.58 1014.80 1015.06 1015.31 1015.55 1015.74 1015.89 1016.01 1016.10 1016.20 1016.32 1016.47 1016.65 1016.85 1017.03 1017.17 1017.26
1011.36 1011.25 1010.84 1010.25 1009.58 1008.95 1008.46 1008.18 1008.15 1008.35 1008.74 1009.24 1009.79 1010.32 1010.79 1011.17 1011.47 1011.71 1011.93 1012.15 1012.40 1012.67 1012.96 1013.25 1013.51 1013.72 1013.88 1013.99 1014.07 1014.16 1014.27 1014.44 1014.66 1014.92 1015.21 1015.49 1015.74 1015.93 1016.07 1016.16 1016.22 1016.29 1016.38 1016.51 1016.67 1016.84 1017.01 1017.14 1017.21
1010.94 1010.68 1010.17 1009.50 1008.81 1008.22 1007.80 1007.62 1007.69 1007.97 1008.42 1008.95 1009.50 1010.01 1010.45 1010.80 1011.10 1011.35 1011.60 1011.86 1012.16 1012.49 1012.83 1013.16 1013.45 1013.68 1013.85 1013.97 1014.07 1014.17 1014.31 1014.51 1014.76 1015.05 1015.35 1015.64 1015.89 1016.07 1016.18 1016.24 1016.27 1016.30 1016.36 1016.46 1016.59 1016.75 1016.91 1017.03 1017.10
1010.52 1010.17 1009.59 1008.90 1008.22 1007.67 1007.32 1007.22 1007.34 1007.68 1008.14 1008.66 1009.18 1009.65 1010.06 1010.38 1010.66 1010.92 1011.18 1011.48 1011.82 1012.18 1012.56 1012.93 1013.25 1013.51 1013.72 1013.88 1014.02 1014.17 1014.34 1014.56 1014.83 1015.13 1015.44 1015.72 1015.95 1016.11 1016.20 1016.23 1016.23 1016.24 1016.27 1016.35 1016.47 1016.62 1016.77 1016.90 1016.98
1010.23 1009.82 1009.22 1008.53 1007.89 1007.39 1007.10 1007.03 1007.19 1007.51 1007.95 1008.43 1008.90 1009.32 1009.67 1009.97 1010.23 1010.48 1010.75 1011.06 1011.41 1011.79 1012.19 1012.57 1012.93 1013.24 1013.50 1013.72 1013.91 1014.10 1014.31 1014.56 1014.83 1015.12 1015.41 1015.67 1015.88 1016.02 1016.10 1016.13 1016.13 1016.13 1016.16 1016.23 1016.35 1016.49 1016.65 1016.79 1016.89
1010.14 1009.71 1009.12 1008.47 1007.87 1007.42 1007.15 1007.09 1007.22 1007.50 1007.86 1008.27 1008.66 1009.02 1009.33 1009.61 1009.85 1010.09 1010.35 1010.64 1010.98 1011.35 1011.74 1012.14 1012.52 1012.88 1013.19 1013.47 1013.72 1013.96 1014.19 1014.45 1014.71 1014.98 1015.24 1015.47 1015.66 1015.80 1015.89 1015.94 1015.96 1015.99 1016.04 1016.13 1016.26 1016.42 1016.58 1016.74 1016.86
1010.25 1009.83 1009.27 1008.67 1008.13 1007.71 1007.45 1007.35 1007.41 1007.59 1007.85 1008.15 1008.46 1008.76 1009.03 1009.27 1009.50 1009.73 1009.98 1010.25 1010.56 1010.90 1011.27 1011.66 1012.06 1012.44 1012.80 1013.14 1013.44 1013.72 1013.97 1014.21 1014.45 1014.68 1014.90 1015.11 1015.29 1015.45 1015.58 1015.68 1015.77 1015.85 1015.95 1016.07 1016.22 1016.39 1016.57 1016.74 1016.87
1010.48 1010.10 1009.60 1009.07 1008.58 1008.19 1007.91 1007.74 1007.70 1007.75 1007.87 1008.04 1008.25 1008.47 1008.71 1008.94 1009.16 1009.39 1009.62 1009.86 1010.13 1010.43 1010.77 1011.14 1011.55 1011.96 1012.37 1012.75 1013.09 1013.40 1013.65 1013.87 1014.07 1014.25 1014.44 1014.62 1014.82 1015.01 1015.20 1015.38 1015.55 1015.72 1015.88 1016.05 1016.22 1016.41 1016.59 1016.76 1016.91
1010.76 1010.42 1010.01 1009.57 1009.15 1008.77 1008.46 1008.21 1008.02 1007.91 1007.87 1007.89 1007.99 1008.13 1008.32 1008.54 1008.77 1009.00 1009.21 1009.44 1009.67 1009.93 1010.24 1010.59 1011.00 1011.44 1011.89 1012.31 1012.70 1013.02 1013.27 1013.47 1013.62 1013.75 1013.90 1014.06 1014.27 1014.51 1014.77 1015.04 1015.31 1015.57 1015.80 1016.02 1016.22 1016.41 1016.59 1016.77 1016.93
1010.97 1010.72 1010.42 1010.09 1009.75 1009.41 1009.06 1008.71 1008.37 1008.08 1007.85 1007.70 1007.66 1007.71 1007.85 1008.04 1008.27 1008.50 1008.71 1008.92 1009.12 1009.36 1009.64 1009.99 1010.41 1010.88 1011.37 1011.85 1012.27 1012.61 1012.86 1013.03 1013.14 1013.23 1013.33 1013.48 1013.70 1013.99 1014.32 1014.68 1015.05 1015.38 1015.68 1015.94 1016.16 1016.35 1016.53 1016.71 1016.88
1011.05 1010.92 1010.77 1010.59 1010.37 1010.07 1009.70 1009.25 1008.76 1008.27 1007.83 1007.49 1007.28 1007.22 1007.28 1007.44 1007.64 1007.86 1008.07 1008.27 1008.46 1008.68 1008.95 1009.31 1009.75 1010.26 1010.81 1011.34 1011.81 1012.18 1012.44 1012.59 1012.67 1012.72 1012.79 1012.93 1013.15 1013.47 1013.86 1014.30 1014.73 1015.14 1015.49 1015.77 1016.00 1016.19 1016.36 1016.53 1016.72
1010.98 1011.02 1011.07 1011.08 1011.00 1010.79 1010.42 1009.89 1009.25 1008.56 1007.89 1007.34 1006.94 1006.72 1006.67 1006.75 1006.91 1007.11 1007.30 1007.48 1007.66 1007.87 1008.15 1008.53 1009.01 1009.57 1010.18 1010.78 1011.31 1011.72 1012.00 1012.16 1012.22 1012.24 1012.29 1012.41 1012.64 1012.98 1013.40 1013.88 1014.36 1014.80 1015.18 1015.48 1015.71 1015.89 1016.06 1016.24 1016.45
1010.80 1011.06 1011.34 1011.58 1011.69 1011.60 1011.25 1010.67 1009.89 1009.00 1008.11 1007.32 1006.70 1006.29 1006.09 1006.06 1006.14 1006.28 1006.44 1006.59 1006.76 1006.97 1007.25 1007.65 1008.17 1008.78 1009.46 1010.12 1010.72 1011.19 1011.51 1011.69 1011.76 1011.78 1011.82 1011.93 1012.15 1012.48 1012.92 1013.41 1013.91 1014.37 1014.76 1015.06 1015.29 1015.48 1015.65 1015.85 1016.08
1010.58 1011.08 1011.64 1012.14 1012.46 1012.51 1012.22 1011.61 1010.72 1009.65 1008.54 1007.52 1006.66 1006.04 1005.65 1005.47 1005.43 1005.49 1005.58 1005.69 1005.82 1006.01 1006.30 1006.70 1007.24 1007.90 1008.63 1009.36 1010.01 1010.55 1010.93 1011.15 1011.24 1011.28 1011.32 1011.43 1011.65 1011.97 1012.40 1012.89 1013.39 1013.84 1014.23 1014.53 1014.77 1014.96 1015.15 1015.38 1015.65
1010.39 1011.15 1011.98 1012.74 1013.29 1013.49 1013.28 1012.66 1011.69 1010.48 1009.17 1007.93 1006.84 1006.00 1005.42 1005.06 1004.89 1004.83 1004.83 1004.87 1004.96 1005.11 1005.36 1005.76 1006.30 1006.97 1007.72 1008.48 1009.19 1009.78 1010.21 1010.48 1010.63 1010.70 1010.77 1010.89 1011.10 1011.42 1011.84 1012.31 1012.79 1013.24 1013.62 1013.93 1014.18 1014.40 1014.62 1014.88 1015.19
1010.27 1011.27 1012.35 1013.35 1014.10 1014.45 1014.33 1013.73 1012.71 1011.39 1009.94 1008.51 1007.23 1006.20 1005.42 1004.90 1004.58 1004.40 1004.30 1004.26 1004.26 1004.35 1004.55 1004.90 1005.40 1006.04 1006.78 1007.54 1008.27 1008.89 1009.37 1009.69 1009.89 1010.01 1010.12 1010.27 1010.49 1010.82 1011.22 1011.68 1012.15 1012.60 1012.98 1013.30 1013.58 1013.83 1014.09 1014.38 1014.73
1010.23 1011.42 1012.69 1013.87 1014.78 1015.25 1015.22 1014.65 1013.62 1012.25 1010.71 1009.17 1007.76 1006.58 1005.67 1005.01 1004.56 1004.26 1004.05 1003.91 1003.84 1003.84 1003.96 1004.22 1004.64 1005.20 1005.88 1006.60 1007.30 1007.92 1008.42 1008.79 1009.04 1009.22 1009.38 1009.57 1009.82 1010.16 1010.57 1011.02 1011.49 1011.93 1012.33 1012.68 1012.99 1013.28 1013.58 1013.91 1014.29
1010.22 1011.53 1012.92 1014.20 1015.20 1015.76 1015.79 1015.27 1014.27 1012.92 1011.37 1009.79 1008.34 1007.09 1006.09 1005.34 1004.80 1004.41 1004.12 1003.89 1003.72 1003.63 1003.64 1003.78 1004.08 1004.53 1005.10 1005.73 1006.36 1006.94 1007.44 1007.83 1008.12 1008.35 1008.57 1008.81 1009.11 1009.47 1009.89 1010.36 1010.83 1011.29 1011.71 1012.09 1012.43 1012.77 1013.11 1013.47 1013.87
1010.19 1011.53 1012.94 1014.24 1015.26 1015.85 1015.92 1015.47 1014.54 1013.26 1011.78 1010.27 1008.85 1007.62 1006.61 1005.84 1005.26 1004.82 1004.46 1004.16 1003.90 1003.71 1003.61 1003.62 1003.78 1004.08 1004.50 1004.99 1005.52 1006.03 1006.48 1006.87 1007.19 1007.47 1007.74 1008.03 1008.37 1008.77 1009.22 1009.71 1010.20 1010.67 1011.12 1011.53 1011.92 1012.29 1012.67 1013.06 1013.47
1010.09 1011.38 1012.72 1013.96 1014.93 1015.50 1015.59 1015.21 1014.39 1013.24 1011.90 1010.53 1009.23 1008.09 1007.16 1006.42 1005.85 1005.39 1005.00 1004.64 1004.31 1004.03 1003.81 1003.69 1003.70 1003.83 1004.09 1004.43 1004.82 1005.23 1005.62 1005.98 1006.30 1006.61 1006.93 1007.27 1007.66 1008.10 1008.58 1009.09 1009.60 1010.10 1010.57 1011.02 1011.44 1011.84 1012.25 1012.65 1013.06
1009.90 1011.07 1012.27 1013.37 1014.24 1014.75 1014.85 1014.54 1013.85 1012.87 1011.74 1010.56 1009.45 1008.47 1007.65 1006.99 1006.45 1006.01 1005.60 1005.20 1004.82 1004.45 1004.13 1003.89 1003.75 1003.73 1003.82 1004.01 1004.26 1004.56 1004.87 1005.18 1005.50 1005.82 1006.17 1006.56 1006.99 1007.47 1007.98 1008.52 1009.05 1009.57 1010.07 1010.54 1010.98 1011.41 1011.83 1012.24 1012.64
1009.65 1010.66 1011.68 1012.61 1013.33 1013.77 1013.86 1013.62 1013.07 1012.29 1011.38 1010.44 1009.53 1008.73 1008.04 1007.47 1006.98 1006.55 1006.12 1005.69 1005.26 1004.82 1004.42 1004.07 1003.81 1003.66 1003.60 1003.65 1003.77 1003.96 1004.19 1004.45 1004.75 1005.08 1005.46 1005.88 1006.36 1006.87 1007.42 1007.98 1008.53 1009.07 1009.59 1010.08 1010.54 1010.99 1011.41 1011.83 1012.23
Thickness
5807 5804 5801 5789 5771 5752 5748 5760 5770 5770 5772 5779 5781 5776 5768 5761 5755 5752 5774 5783 5785 5784 5785 5785 5786 5786 5785 5785 5785 5786 5787 5786 5785 5784 5783 5783 5782 5781 5780 5778 5777 5777 5776 5774 5772 5770 5768 5767 5766
5808 5804 5796 5781 5759 5739 5748 5766 5769 5774 5780 5784 5783 5778 5770 5767 5772 5772 5777 5782 5784 5784 5784 5784 5785 5784 5784 5784 5784 5785 5786 5785 5784 5784 5784 5783 5781 5780 5779 5778 5777 5776 5775 5773 5771 5769 5768 5766 5765
5809 5805 5787 5772 5757 5747 5755 5771 5775 5782 5788 5786 5779 5778 5772 5769 5774 5775 5780 5783 5783 5783 5783 5783 5783 5783 5783 5783 5783 5784 5784 5783 5782 5782 5782 5781 5780 5779 5778 5776 5775 5774 5773 5771 5770 5768 5766 5765 5763
5807 5796 5784 5767 5759 5767 5772 5778 5783 5782 5785 5787 5780 5772 5775 5780 5780 5781 5783 5783 5782 5781 5782 5782 5782 5782 5782 5782 5782 5783 5783 5782 5781 5780 5780 5779 5778 5777 5776 5775 5774 5773 5772 5770 5768 5767 5765 5763 5761
5805 5788 5771 5760 5766 5778 5786 5788 5788 5782 5780 5782 5779 5768 5768 5780 5785 5784 5783 5782 5780 5780 5781 5781 5781 5781 5781 5781 5781 5781 5781 5780 5779 5779 5779 5778 5777 5776 5775 5774 5773 5772 5770 5769 5768 5766 5764 5762 5761
5794 5783 5761 5755 5768 5781 5788 5793 5789 5783 5781 5782 5778 5769 5768 5779 5781 5782 5782 5780 5780 5779 5779 5779 5780 5780 5779 5779 5779 5779 5779 5778 5778 5777 5777 5776 5775 5774 5773 5772 5771 5770 5769 5768 5766 5765 5763 5761 5760
5789 5776 5766 5767 5770 5778 5789 5796 5789 5783 5780 5782 5783 5769 5769 5776 5781 5782 5781 5780 5779 5778 5778 5777 5778 5777 5777 5777 5776 5777 5777 5777 5776 5775 5775 5774 5774 5773 5772 5771 5769 5768 5767 5766 5765 5763 5762 5761 5760
5799 5781 5772 5770 5772 5778 5794 5796 5795 5789 5785 5793 5789 5771 5767 5777 5782 5782 5780 5778 5777 5777 5776 5776 5776 5776 5776 5775 5775 5775 5775 5775 5774 5774 5773 5772 5772 5771 5770 5769 5768 5767 5766 5765 5764 5763 5761 5760 5759
5805 5777 5768 5777 5779 5785 5797 5794 5796 5800 5792 5791 5791 5785 5785 5785 5783 5779 5775 5774 5774 5775 5775 5775 5775 5774 5774 5774 5774 5774 5774 5774 5773 5772 5772 5771 5770 5769 5768 5767 5766 5766 5765 5764 5763 5762 5760 5759 5758
5796 5773 5783 5798 5800 5797 5799 5797 5796 5792 5785 5783 5784 5786 5788 5784 5780 5776 5773 5771 5771 5772 5773 5774 5774 5773 5774 5774 5773 5773 5773 5772 5771 5771 5770 5769 5768 5768 5767 5766 5765 5764 5764 5763 5761 5760 5759 5758 5756
5798 5789 5801 5809 5812 5809 5801 5798 5800 5788 5779 5783 5782 5782 5784 5781 5778 5776 5774 5774 5773 5773 5774 5774 5774 5773 5773 5772 5772 5772 5772 5771 5770 5770 5769 5768 5767 5766 5765 5764 5763 5763 5762 5761 5760 5758 5757 5756 5754
5803 5806 5811 5813 5816 5811 5803 5800 5796 5792 5792 5799 5795 5791 5786 5781 5778 5777 5776 5775 5775 5774 5774 5775 5775 5774 5773 5772 5772 5771 5771 5770 5770 5769 5768 5767 5766 5765 5764 5763 5762 5761 5760 5758 5757 5756 5755 5754 5752
5806 5808 5814 5816 5814 5811 5807 5800 5797 5796 5801 5802 5797 5791 5786 5783 5781 5780 5780 5778 5776 5775 5775 5775 5775 5774 5773 5772 5771 5771 5770 5769 5768 5768 5767 5766 5765 5763 5762 5761 5760 5759 5758 5756 5755 5754 5752 5751 5750
5811 5811 5812 5813 5811 5811 5802 5798 5797 5795 5801 5797 5793 5789 5787 5785 5783 5781 5780 5778 5777 5777 5776 5777 5776 5775 5773 5772 5771 5770 5769 5768 5767 5766 5765 5764 5763 5762 5760 5759 5758 5757 5756 5755 5753 5752 5750 5749 5748
5815 5805 5804 5807 5808 5806 5802 5788 5792 5798 5799 5793 5791 5790 5788 5786 5785 5783 5782 5781 5780 5779 5779 5778 5777 5775 5774 5772 5771 5770 5769 5768 5767 5766 5765 5763 5762 5761 5759 5758 5756 5755 5754 5753 5751 5749 5747 5747 5746
5805 5792 5782 5799 5805 5805 5794 5775 5794 5800 5796 5790 5790 5789 5788 5787 5787 5786 5786 5784 5783 5782 5780 5779 5779 5776 5774 5772 5771 5770 5769 5768 5767 5766 5764 5763 5761 5760 5758 5757 5755 5754 5752 5751 5748 5746 5744 5743 5742
5784 5773 5776 5789 5803 5801 5791 5781 5795 5800 5796 5790 5790 5789 5788 5786 5787 5788 5788 5787 5785 5784 5781 5779 5779 5777 5776 5774 5772 5771 5770 5768 5767 5765 5764 5762 5761 5759 5757 5755 5754 5752 5750 5749 5747 5745 5743 5740 5739
5772 5774 5778 5781 5797 5796 5786 5785 5794 5798 5796 5792 5791 5789 5788 5787 5789 5791 5790 5789 5787 5785 5783 5781 5779 5778 5776 5774 5772 5770 5769 5768 5767 5765 5764 5762 5760 5759 5757 5755 5753 5751 5749 5747 5745 5743 5741 5739 5737
5789 5782 5777 5786 5800 5792 5784 5784 5791 5796 5794 5791 5790 5789 5788 5790 5793 5793 5792 5790 5788 5786 5783 5781 5779 5778 5776 5773 5770 5768 5766 5767 5766 5766 5764 5763 5761 5759 5757 5755 5753 5751 5748 5746 5745 5743 5740 5737 5736
5789 5780 5779 5789 5799 5792 5784 5784 5793 5796 5795 5796 5794 5792 5791 5790 5791 5792 5792 5790 5788 5786 5784 5782 5781 5779 5777 5775 5773 5771 5769 5767 5767 5766 5764 5763 5761 5760 5758 5756 5753 5751 5748 5746 5744 5742 5738 5736 5735
5786 5780 5781 5781 5788 5790 5783 5776 5785 5794 5798 5798 5798 5797 5796 5795 5793 5792 5792 5791 5790 5788 5786 5785 5782 5780 5778 5776 5774 5771 5768 5767 5765 5764 5763 5763 5761 5760 5758 5756 5753 5751 5749 5746 5744 5742 5739 5735 5733
5778 5794 5791 5785 5771 5761 5772 5751 5775 5784 5788 5793 5796 5797 5798 5799 5798 5796 5795 5793 5792 5791 5790 5787 5784 5781 5779 5777 5774 5770 5766 5763 5763 5763 5762 5762 5761 5759 5758 5756 5754 5751 5749 5747 5745 5742 5740 5736 5732
5790 5798 5790 5782 5769 5758 5762 5753 5763 5779 5779 5789 5797 5801 5802 5803 5802 5800 5799 5798 5797 5795 5792 5789 5785 5782 5779 5777 5774 5770 5767 5765 5764 5763 5762 5761 5760 5759 5758 5756 5754 5752 5750 5748 5745 5742 5740 5737 5734
5798 5787 5776 5765 5755 5741 5754 5750 5755 5769 5782 5793 5801 5804 5806 5806 5806 5804 5803 5801 5798 5796 5793 5790 5785 5782 5780 5777 5774 5771 5768 5765 5762 5761 5760 5760 5759 5758 5758 5756 5754 5752 5750 5748 5745 5743 5740 5738 5735
5787 5761 5737 5735 5727 5733 5754 5751 5759 5786 5796 5799 5802 5805 5808 5808 5807 5805 5803 5800 5798 5795 5793 5790 5786 5782 5780 5777 5774 5772 5769 5766 5763 5761 5760 5758 5757 5757 5757 5756 5754 5752 5750 5748 5745 5742 5740 5738 5735
5775 5764 5735 5722 5721 5731 5748 5746 5769 5794 5801 5804 5805 5806 5807 5807 5807 5806 5805 5802 5799 5797 5793 5790 5786 5782 5779 5776 5773 5771 5769 5766 5764 5762 5760 5758 5758 5757 5757 5755 5754 5752 5749 5747 5744 5742 5739 5737 5734
5769 5758 5761 5737 5732 5727 5735 5752 5773 5792 5795 5798 5800 5803 5804 5806 5806 5805 5804 5802 5799 5796 5793 5790 5786 5781 5779 5776 5773 5770 5767 5765 5763 5761 5760 5759 5758 5757 5756 5754 5752 5750 5748 5746 5743 5740 5738 5735 5733
5777 5762 5743 5730 5716 5715 5732 5742 5749 5772 5781 5788 5793 5797 5801 5804 5804 5803 5802 5801 5799 5796 5793 5790 5786 5782 5778 5775 5772 5769 5766 5764 5762 5761 5759 5758 5757 5756 5754 5752 5750 5748 5746 5744 5741 5738 5737 5734 5732
5761 5753 5740 5728 5727 5715 5714 5734 5772 5775 5782 5785 5791 5796 5798 5801 5802 5801 5800 5798 5797 5794 5791 5787 5784 5779 5776 5773 5770 5768 5765 5763 5761 5760 5758 5757 5755 5753 5751 5750 5748 5746 5743 5741 5738 5736 5735 5733 5731
5766 5755 5742 5730 5723 5719 5718 5738 5783 5782 5785 5786 5789 5794 5797 5799 5799 5798 5796 5794 5792 5789 5787 5784 5781 5778 5774 5772 5768 5766 5763 5761 5759 5757 5756 5754 5752 5751 5749 5747 5744 5743 5741 5739 5736 5734 5732 5730 5727